TimePDT,TemperatureF,Dew PointF,Humidity,Sea Level PressureIn,VisibilityMPH,Wind Direction,Wind SpeedMPH,Gust SpeedMPH,PrecipitationIn,Events,Conditions,WindDirDegrees,DateUTC
12:48 AM,72.0,28.9,20,29.92,10.0,West,9.2,-,N/A,,Clear,280,2012-10-03 07:48:00
1:48 AM,73.0,34.0,24,29.92,10.0,WNW,10.4,-,N/A,,Clear,300,2012-10-03 08:48:00
2:48 AM,71.1,30.0,22,29.92,10.0,SW,4.6,-,N/A,,Clear,230,2012-10-03 09:48:00
3:48 AM,71.1,27.0,19,29.92,10.0,NW,12.7,-,N/A,,Clear,320,2012-10-03 10:48:00
4:48 AM,70.0,26.1,19,29.93,10.0,West,9.2,-,N/A,,Clear,270,2012-10-03 11:48:00
5:48 AM,71.1,27.0,19,29.93,10.0,SSW,4.6,-,N/A,,Clear,210,2012-10-03 12:48:00
6:48 AM,70.0,27.0,20,29.95,10.0,SSW,6.9,-,N/A,,Clear,210,2012-10-03 13:48:00
7:48 AM,70.0,27.0,20,29.97,10.0,SSW,6.9,-,N/A,,Clear,200,2012-10-03 14:48:00
8:48 AM,73.0,28.0,19,29.97,10.0,SSW,10.4,-,N/A,,Clear,200,2012-10-03 15:48:00
9:48 AM,75.9,28.0,17,29.98,10.0,South,13.8,19.6,N/A,,Clear,190,2012-10-03 16:48:00
10:48 AM,77.0,28.9,17,29.98,10.0,South,18.4,25.3,N/A,,Clear,180,2012-10-03 17:48:00
11:48 AM,79.0,28.9,16,29.97,10.0,South,20.7,28.8,N/A,,Clear,190,2012-10-03 18:48:00
12:48 PM,81.0,30.0,16,29.96,10.0,South,15.0,27.6,N/A,,Clear,180,2012-10-03 19:48:00
1:48 PM,81.0,33.1,18,29.94,10.0,SSE,21.9,31.1,N/A,,Clear,160,2012-10-03 20:48:00
2:48 PM,79.0,37.0,22,29.94,10.0,South,20.7,28.8,N/A,,Clear,180,2012-10-03 21:48:00
3:48 PM,78.1,39.9,25,29.94,10.0,South,19.6,29.9,N/A,,Clear,170,2012-10-03 22:48:00
4:48 PM,75.0,39.9,28,29.95,10.0,South,18.4,32.2,N/A,,Clear,180,2012-10-03 23:48:00
5:48 PM,-9999,-9999,N/A,-9999,-9999.0,North,-9999.0,-,N/A,,Unknown,0,2012-10-04 00:48:00
6:48 PM,66.9,41.0,39,29.97,10.0,South,18.4,26.5,N/A,,Clear,180,2012-10-04 01:48:00
7:10 PM,-9999,-9999,N/A,-9999,-9999.0,North,-9999.0,-,N/A,,Unknown,0,2012-10-04 02:10:00
7:48 PM,64.9,44.1,47,29.99,10.0,South,17.3,25.3,N/A,,Clear,180,2012-10-04 02:48:00
8:48 PM,63.0,44.1,50,30.01,10.0,South,11.5,-,N/A,,Clear,190,2012-10-04 03:48:00
9:48 PM,63.0,36.0,37,30.01,10.0,South,10.4,-,N/A,,Clear,190,2012-10-04 04:48:00
10:48 PM,64.0,30.0,28,30.02,10.0,SSW,9.2,-,N/A,,Clear,200,2012-10-04 05:48:00
11:48 PM,63.0,30.9,30,30.02,10.0,SSW,9.2,-,N/A,,Clear,200,2012-10-04 06:48:00